DW4139 Weather Reports


time (UTC)temp
C
wind
direction
speed
KPH
gust
KPH
rain 1hr
cm
rain 24hr
cm
rain mn
cm
humidity
%
barometer
mb
20260508054904 9 202 0.0 0.0 0.00 0.00 0.00 65 1016.8
20260508054405 9 202 0.0 0.0 0.00 0.00 0.00 66 1017.1
20260508053405 9 202 0.0 0.0 0.00 0.00 0.00 65 1017.1
20260508052905 9 202 0.0 0.0 0.00 0.00 0.00 65 1017.1
20260508051405 10 225 0.0 0.0 0.00 0.00 0.00 65 1017.1
20260508050904 10 248 0.0 0.0 0.00 0.00 0.00 64 1017.1
20260508050404 10 216 0.0 0.0 0.00 0.00 0.00 64 1017.1
20260508045405 9 248 0.0 0.0 0.00 0.00 0.00 64 1017.4
20260508044904 9 251 0.0 0.0 0.00 0.00 0.00 63 1017.2
20260508043904 9 225 0.0 0.0 0.00 0.00 0.00 63 1017.1
20260508042905 9 248 6.4 11.3 0.00 0.00 0.00 63 1017.4
20260508042404 9 225 1.6 1.6 0.00 0.00 0.00 63 1017.1
20260508041904 9 245 0.0 0.0 0.00 0.00 0.00 64 1017.1
20260508041404 9 248 0.0 0.0 0.00 0.00 0.00 64 1017.1
20260508040404 8 185 0.0 0.0 0.00 0.00 0.00 65 1017.1
20260508035905 8 180 0.0 0.0 0.00 0.00 0.00 65 1017.1
20260508035404 8 180 0.0 0.0 0.00 0.00 0.00 65 1017.1
20260508034905 8 180 0.0 0.0 0.00 0.00 0.00 66 1017.1
20260508034405 8 180 0.0 0.0 0.00 0.00 0.00 66 1017.1
20260508033905 8 180 0.0 0.0 0.00 0.00 0.00 67 1017.1
20260508033404 8 196 0.0 0.0 0.00 0.00 0.00 67 1017.3
20260508032905 8 202 0.0 0.0 0.00 0.00 0.00 67 1017.1
20260508032405 8 201 0.0 0.0 0.00 0.00 0.00 67 1017.1
20260508031405 8 180 0.0 0.0 0.00 0.00 0.00 67 1017.1
20260508030904 8 180 0.0 0.0 0.00 0.00 0.00 67 1017.1
20260508025905 8 202 0.0 0.0 0.00 0.00 0.00 68 1017.1
20260508025404 8 202 0.0 0.0 0.00 0.00 0.00 68 1017.1
20260508024904 8 202 0.0 0.0 0.00 0.00 0.00 68 1017.4
20260508024404 8 202 0.0 0.0 0.00 0.00 0.00 68 1017.4
20260508023905 8 202 6.4 8.0 0.00 0.00 0.00 68 1017.4
20260508022904 8 202 0.0 0.0 0.00 0.00 0.00 68 1017.4
20260508022404 8 225 0.0 0.0 0.00 0.00 0.00 67 1017.1
20260508021405 8 225 0.0 0.0 0.00 0.00 0.00 65 1017.1
20260508020905 8 248 0.0 0.0 0.00 0.00 0.00 64 1017.2
20260508020404 8 248 0.0 0.0 0.00 0.00 0.00 64 1017.1
20260508015405 9 248 0.0 0.0 0.00 0.00 0.00 64 1017.1
20260508014904 9 248 0.0 0.0 0.00 0.00 0.00 64 1017.1
20260508013904 10 248 0.0 0.0 0.00 0.00 0.00 63 1017.1
20260508013405 10 248 0.0 0.0 0.00 0.00 0.00 63 1017.1
20260508012904 10 225 0.0 0.0 0.00 0.00 0.00 63 1017.1
20260508011904 10 248 0.0 3.2 0.00 0.00 0.00 62 1017.1
20260508011404 10 225 1.6 3.2 0.00 0.00 0.00 63 1017.1
20260508010904 10 228 0.0 0.0 0.00 0.00 0.00 62 1017.1
20260508010405 10 267 0.0 0.0 0.00 0.00 0.00 62 1017.1
20260508004904 10 229 0.0 0.0 0.00 0.00 0.00 61 1017.1
20260508004404 10 270 0.0 0.0 0.00 0.00 0.00 61 1017.1
20260508003905 11 267 0.0 0.0 0.00 0.00 0.00 60 1017.1
20260508002404 11 292 0.0 0.0 0.00 0.00 0.00 58 1016.7
20260508001905 11 248 0.0 0.0 0.00 0.00 0.00 58 1016.7
20260508000905 11 264 3.2 3.2 0.00 0.00 0.00 58 1016.7
20260508000405 12 270 0.0 4.8 0.00 0.00 0.00 57 1016.7
20260507235905 12 270 1.6 4.8 0.00 0.00 0.00 56 1016.7
20260507235404 12 270 0.0 9.7 0.00 0.00 0.00 56 1016.7
20260507234904 12 292 0.0 0.0 0.00 0.00 0.00 54 1016.7
20260507233905 13 282 9.7 11.3 0.00 0.00 0.00 53 1016.7
20260507233404 13 270 0.0 0.0 0.00 0.00 0.00 53 1016.7
20260507232904 13 270 1.6 1.6 0.00 0.00 0.00 53 1016.7
20260507232405 13 267 0.0 14.5 0.00 0.00 0.00 52 1016.7
20260507231904 13 248 1.6 14.5 0.00 0.00 0.00 53 1016.7
20260507231404 13 248 6.4 14.5 0.00 0.00 0.00 53 1016.7
20260507230904 13 266 4.8 12.9 0.00 0.00 0.00 52 1016.7
20260507230404 13 270 1.6 19.3 0.00 0.00 0.00 51 1016.7
20260507225905 14 292 8.0 19.3 0.00 0.00 0.00 51 1016.7
20260507225404 14 240 6.4 11.3 0.00 0.00 0.00 51 1016.8
20260507224904 14 292 9.7 11.3 0.00 0.00 0.00 52 1017.1
20260507222905 14 270 16.1 24.1 0.00 0.00 0.00 52 1017.1
20260507222404 14 248 0.0 1.6 0.00 0.00 0.00 52 1016.7
20260507221404 14 292 8.0 16.1 0.00 0.00 0.00 52 1016.7
20260507220905 14 270 0.0 11.3 0.00 0.00 0.00 53 1016.7
20260507220404 13 270 0.0 1.6 0.00 0.00 0.00 55 1016.7
20260507215905 13 270 1.6 4.8 0.00 0.00 0.00 54 1016.7
20260507215405 13 248 11.3 11.3 0.00 0.00 0.00 53 1016.7
20260507214904 13 248 0.0 11.3 0.00 0.00 0.00 53 1016.7
20260507214405 13 225 6.4 11.3 0.00 0.00 0.00 53 1016.4
20260507213904 13 255 0.0 11.3 0.00 0.00 0.00 52 1016.4
20260507213404 13 270 8.0 20.9 0.00 0.00 0.00 53 1016.6
20260507212905 13 225 8.0 20.9 0.00 0.00 0.00 52 1016.4
20260507212404 13 248 9.7 11.3 0.00 0.00 0.00 52 1016.4
20260507211904 13 225 11.3 11.3 0.00 0.00 0.00 52 1016.4
20260507211405 14 270 0.0 3.2 0.00 0.00 0.00 52 1016.4
20260507210905 14 282 0.0 3.2 0.00 0.00 0.00 53 1016.3
20260507210405 13 225 0.0 9.7 0.00 0.00 0.00 53 1016.4
20260507205404 13 270 0.0 0.0 0.00 0.00 0.00 53 1016.4
20260507204905 13 292 0.0 0.0 0.00 0.00 0.00 53 1016.1
20260507204405 13 248 0.0 0.0 0.00 0.00 0.00 53 1016.4
20260507203905 13 286 11.3 12.9 0.00 0.00 0.00 51 1016.4
20260507203404 14 292 1.6 16.1 0.00 0.00 0.00 49 1016.4
20260507202904 14 292 16.1 16.1 0.00 0.00 0.00 49 1016.4
20260507202404 14 233 3.2 16.1 0.00 0.00 0.00 50 1016.4
20260507201905 14 270 0.0 0.0 0.00 0.00 0.00 51 1016.4
20260507201404 13 315 0.0 3.2 0.00 0.00 0.00 50 1016.4
20260507200404 14 270 3.2 9.7 0.00 0.00 0.00 49 1016.4
20260507195904 14 338 0.0 3.2 0.00 0.00 0.00 49 1016.4
20260507195405 13 280 1.6 11.3 0.00 0.00 0.00 49 1016.7
20260507194405 13 270 8.0 11.3 0.00 0.00 0.00 49 1016.7
20260507193904 13 280 0.0 3.2 0.00 0.00 0.00 52 1016.7
20260507192904 13 292 0.0 8.0 0.00 0.00 0.00 52 1017.1
20260507192404 13 278 0.0 8.0 0.00 0.00 0.00 53 1017.1
20260507191904 13 292 1.6 11.3 0.00 0.00 0.00 52 1017.1
20260507191404 13 292 3.2 11.3 0.00 0.00 0.00 53 1017.1
20260507190404 13 292 0.0 1.6 0.00 0.00 0.00 53 1017.1
20260507185904 13 292 1.6 11.3 0.00 0.00 0.00 53 1017.1
20260507184904 13 292 0.0 0.0 0.00 0.00 0.00 55 1017.1
20260507184404 13 270 4.8 9.7 0.00 0.00 0.00 55 1017.1
20260507183905 13 292 16.1 19.3 0.00 0.00 0.00 54 1017.1
20260507182404 13 315 0.0 11.3 0.00 0.00 0.00 54 1009.8
20260507181904 13 292 0.0 0.0 0.00 0.00 0.00 53 1010.1
20260507181405 13 292 0.0 0.0 0.00 0.00 0.00 53 1010.1
20260507180905 13 305 9.7 11.3 0.00 0.00 0.00 53 1009.8
20260507180404 13 338 1.6 11.3 0.00 0.00 0.00 52 1009.8
20260507175404 13 279 0.0 14.5 0.00 0.00 0.00 50 1009.8
20260507174904 13 315 9.7 14.5 0.00 0.00 0.00 50 1009.8
20260507174404 13 292 4.8 4.8 0.00 0.00 0.00 50 1009.9
20260507173404 13 315 0.0 0.0 0.00 0.00 0.00 55 1010.0
20260507172904 13 270 4.8 4.8 0.00 0.00 0.00 54 1009.8
20260507172405 13 292 1.6 14.5 0.00 0.05 0.00 55 1010.1
20260507171404 13 292 0.0 0.0 0.00 0.05 0.00 54 1010.1
20260507170904 13 283 16.1 19.3 0.00 0.05 0.00 52 1010.1
20260507170404 14 270 4.8 9.7 0.00 0.05 0.00 51 1010.1
20260507165904 14 314 1.6 4.8 0.00 0.05 0.00 53 1010.1
20260507164905 14 315 0.0 0.0 0.00 0.05 0.00 56 1010.1
20260507163904 14 289 0.0 0.0 0.00 0.05 0.00 58 1010.1
20260507163404 13 270 0.0 0.0 0.00 0.05 0.00 59 1010.1
20260507162905 13 292 0.0 0.0 0.00 0.05 0.00 59 1010.1
20260507162404 13 283 0.0 0.0 0.00 0.05 0.00 61 1010.1
20260507161904 13 270 0.0 0.0 0.00 0.05 0.00 62 1010.1
20260507161405 13 270 1.6 1.6 0.00 0.05 0.00 63 1010.1
20260507160905 13 292 0.0 0.0 0.00 0.05 0.00 63 1010.1
20260507160404 13 270 0.0 1.6 0.00 0.05 0.00 61 1010.1
20260507155904 13 270 1.6 1.6 0.00 0.05 0.00 60 1010.1
20260507155405 13 284 0.0 8.0 0.00 0.05 0.00 61 1010.1
20260507154904 13 292 0.0 0.0 0.00 0.05 0.00 60 1010.1
20260507154404 13 292 0.0 0.0 0.00 0.05 0.00 61 1010.1
20260507153404 13 270 0.0 0.0 0.00 0.05 0.00 60 1010.1
20260507152904 13 270 3.2 3.2 0.00 0.05 0.00 59 1010.1
20260507152405 13 292 0.0 3.2 0.00 0.05 0.00 59 1010.1
20260507151904 13 292 0.0 0.0 0.00 0.05 0.00 61 1010.1
20260507151404 13 292 8.0 11.3 0.00 0.05 0.00 61 1010.1
20260507150904 13 278 0.0 0.0 0.00 0.05 0.00 62 1010.1
20260507150404 13 270 0.0 1.6 0.00 0.05 0.00 62 1010.1
20260507145405 13 259 0.0 11.3 0.00 0.05 0.00 67 1010.1
20260507144904 13 292 6.4 11.3 0.00 0.05 0.00 67 1010.1
20260507144404 13 292 4.8 4.8 0.00 0.05 0.00 67 1010.1
20260507143905 13 287 1.6 4.8 0.00 0.05 0.00 68 1010.1
20260507143404 13 315 4.8 4.8 0.00 0.05 0.00 67 1009.8
20260507142404 13 292 6.4 8.0 0.00 0.05 0.00 70 1010.1
20260507141404 12 292 1.6 9.7 0.00 0.05 0.00 69 1010.1
20260507140904 12 250 1.6 8.0 0.00 0.05 0.00 69 1010.1
20260507140406 12 292 4.8 8.0 0.00 0.05 0.00 69 1010.1
20260507135904 12 292 9.7 12.9 0.00 0.05 0.00 69 1010.1
20260507135404 12 248 4.8 8.0 0.00 0.05 0.00 68 1010.1
20260507134904 11 292 0.0 0.0 0.00 0.05 0.00 68 1010.1
20260507134404 11 336 0.0 0.0 0.00 0.05 0.00 68 1010.4
20260507133904 11 303 1.6 8.0 0.00 0.05 0.00 69 1010.4
20260507133404 11 248 0.0 0.0 0.00 0.05 0.00 69 1010.4
20260507132904 11 283 0.0 0.0 0.00 0.05 0.00 70 1010.4
20260507132405 11 265 0.0 9.7 0.00 0.05 0.00 73 1010.1
20260507131906 11 292 8.0 9.7 0.00 0.05 0.00 72 1010.1
20260507130904 11 292 1.6 8.0 0.00 0.05 0.00 72 1010.1
20260507125904 11 250 4.8 12.9 0.00 0.05 0.00 72 1010.1
20260507125405 10 232 9.7 12.9 0.00 0.05 0.00 71 1010.1
20260507124904 10 292 1.6 4.8 0.00 0.05 0.00 71 1010.1
20260507123904 10 203 0.0 0.0 0.00 0.05 0.00 72 1010.1
20260507123405 10 248 0.0 0.0 0.00 0.05 0.00 72 1010.1
20260507122904 10 246 0.0 0.0 0.00 0.05 0.00 72 1010.1
20260507122404 9 248 0.0 0.0 0.00 0.05 0.00 73 1010.1
20260507121904 9 248 0.0 0.0 0.00 0.05 0.00 73 1010.1
20260507121404 9 270 0.0 0.0 0.00 0.05 0.00 73 1010.1
20260507120904 8 194 0.0 0.0 0.00 0.05 0.00 74 1010.1
20260507120404 8 180 0.0 0.0 0.00 0.05 0.00 74 1009.9
20260507115904 8 180 0.0 0.0 0.00 0.05 0.00 74 1010.1
20260507115404 8 180 0.0 0.0 0.00 0.05 0.00 74 1010.1
20260507114904 8 180 0.0 0.0 0.00 0.05 0.00 74 1010.1
20260507114404 8 180 0.0 0.0 0.00 0.05 0.00 74 1009.9
20260507113905 8 202 0.0 0.0 0.00 0.05 0.00 75 1010.0
20260507113404 7 202 0.0 0.0 0.00 0.05 0.00 75 1009.8
20260507112404 7 180 0.0 0.0 0.00 0.05 0.00 76 1009.8
20260507111905 7 180 0.0 0.0 0.00 0.05 0.00 76 1009.8
20260507110905 7 185 0.0 0.0 0.00 0.05 0.00 75 1009.8
20260507110404 7 180 0.0 0.0 0.00 0.05 0.00 75 1009.5
20260507105904 7 183 0.0 0.0 0.00 0.05 0.00 75 1009.8
20260507104905 7 202 0.0 0.0 0.00 0.05 0.00 76 1009.4
20260507104405 7 202 0.0 0.0 0.00 0.05 0.00 76 1009.8
20260507103904 7 202 0.0 0.0 0.00 0.05 0.00 76 1009.4
20260507103404 7 202 0.0 0.0 0.00 0.05 0.00 76 1009.4
20260507102904 7 202 0.0 0.0 0.00 0.05 0.00 76 1009.4
20260507102404 7 202 0.0 0.0 0.00 0.05 0.00 75 1009.4
20260507100904 7 183 0.0 0.0 0.00 0.05 0.00 76 1009.2
20260507100405 7 180 0.0 0.0 0.00 0.05 0.00 76 1009.4
20260507095904 7 202 0.0 0.0 0.00 0.05 0.00 76 1009.4
20260507095404 7 182 0.0 0.0 0.00 0.05 0.00 76 1009.4
20260507094904 7 202 0.0 0.0 0.00 0.05 0.00 76 1009.4
20260507094404 7 180 0.0 0.0 0.00 0.05 0.00 76 1009.4
20260507093904 7 197 0.0 0.0 0.00 0.05 0.00 76 1009.1
20260507092904 7 180 0.0 0.0 0.00 0.05 0.00 76 1009.4
20260507092404 7 180 0.0 0.0 0.00 0.05 0.00 76 1009.4
20260507091904 7 180 0.0 0.0 0.00 0.05 0.00 77 1009.4
20260507091404 6 187 0.0 0.0 0.00 0.10 0.00 77 1009.4
20260507090405 6 180 0.0 0.0 0.00 0.10 0.00 77 1009.4
20260507085904 6 201 0.0 0.0 0.00 0.10 0.00 77 1009.3
20260507085404 6 202 0.0 0.0 0.00 0.10 0.00 77 1009.4
20260507084404 6 196 0.0 0.0 0.00 0.10 0.00 76 1009.4
20260507083905 6 202 3.2 3.2 0.00 0.10 0.00 76 1009.4
20260507083404 6 202 3.2 4.8 0.00 0.15 0.00 76 1009.6
20260507082905 6 180 0.0 0.0 0.00 0.15 0.00 76 1009.4
20260507081904 6 202 0.0 0.0 0.00 0.15 0.00 76 1009.8
20260507081404 6 180 0.0 0.0 0.00 0.15 0.00 76 1009.8
20260507080904 6 180 0.0 0.0 0.00 0.15 0.00 75 1009.8
20260507080405 6 180 0.0 0.0 0.00 0.15 0.00 75 1009.8
20260507075904 6 180 0.0 0.0 0.00 0.15 0.00 75 1009.8
20260507075404 6 199 0.0 0.0 0.00 0.15 0.00 75 1009.8
20260507074905 6 202 0.0 0.0 0.00 0.15 0.00 75 1009.8
20260507073904 6 201 0.0 8.0 0.00 0.20 0.00 75 1009.8
20260507072404 6 202 0.0 0.0 0.00 0.20 0.00 75 1009.8
20260507071905 6 180 0.0 0.0 0.00 0.20 0.00 75 1009.8
20260507071404 6 202 0.0 0.0 0.00 0.20 0.00 75 1009.8
20260507070904 6 180 0.0 0.0 0.00 0.20 0.00 76 1009.8
20260507065904 6 186 4.8 4.8 0.00 0.20 0.00 76 1009.8
20260507064905 6 180 9.7 11.3 0.00 0.20 0.00 76 1009.8
20260507064403 6 189 1.6 9.7 0.00 0.20 0.00 76 1009.8
20260507063904 6 202 0.0 0.0 0.00 0.20 0.00 75 1009.8
20260507062904 6 180 0.0 0.0 0.00 0.20 0.00 75 1010.1
20260507061904 6 180 0.0 0.0 0.00 0.20 0.00 75 1010.1
20260507061404 6 185 0.0 0.0 0.00 0.20 0.00 74 1010.1
20260507060405 6 158 1.6 3.2 0.00 0.20 0.00 74 1010.1
20260507055904 6 197 0.0 0.0 0.00 0.20 0.00 74 1010.4
20260507055404 6 180 0.0 0.0 0.00 0.20 0.00 74 1010.1